Station Historical Data
Daily Summary for November 2, 2017 Units:  Metric    English   Both
« Previous Day
Next Day »
Daily Weekly Monthly Yearly Custom
  High: Low: Average:
Temperature: 17.9 °C 6.5 °C 13.9 °C
Dew Point: 12.9 °C 4.3 °C 10.7 °C
Humidity: 92% 71% 81%
Wind Speed: 20.9km/h 0km/h 6.8km/h
Wind Gust: 30.6km/h - -
Wind- - SSW
Pressure: 1018.8 hPa 1013.4 hPa -
Precipitation: 0 mm    
Historical Graphs
 
 
Tabular Data for November 2, 2017
Time Temperature Dew Point Pressure Wind Wind Speed Wind Gust Humidity Rainfall Rate (Hourly)
00:04 6.5 °C 4.3 °C 1018.8 hPa Calm     86% 0 mm
00:09 6.5 °C 4.5 °C 1018.8 hPa Calm     87% 0 mm
00:14 6.6 °C 4.6 °C 1018.5 hPa Calm     87% 0 mm
00:19 6.6 °C 4.6 °C 1018.5 hPa Calm     87% 0 mm
00:24 6.7 °C 4.7 °C 1018.5 hPa Calm     87% 0 mm
00:29 6.7 °C 4.7 °C 1018.5 hPa Calm     87% 0 mm
00:34 6.8 °C 4.8 °C 1018.5 hPa Calm     87% 0 mm
00:39 6.8 °C 4.8 °C 1018.5 hPa Calm     87% 0.25 mm
00:44 6.9 °C 4.9 °C 1018.5 hPa Calm     87% 0.25 mm
00:49 6.9 °C 5.1 °C 1018.5 hPa Calm     88% 0.25 mm
00:54 6.9 °C 5.1 °C 1018.5 hPa Calm     88% 0.25 mm
00:59 6.9 °C 5.1 °C 1018.5 hPa Calm     88% 0.51 mm
01:04 6.9 °C 5.1 °C 1018.5 hPa Calm     88% 0.51 mm
01:09 7 °C 5.2 °C 1018.5 hPa Calm     88% 0.76 mm
01:14 7 °C 5.2 °C 1018.5 hPa Calm     88% 0.76 mm
01:19 7.1 °C 5.2 °C 1018.2 hPa Calm     88% 1.02 mm
01:24 7.1 °C 5.2 °C 1018.2 hPa Calm     88% 1.02 mm
01:29 7.1 °C 5.3 °C 1018.2 hPa Calm     88% 1.27 mm
01:34 7.2 °C 5.3 °C 1017.8 hPa Calm     88% 1.27 mm
01:39 7.2 °C 5.3 °C 1017.5 hPa Calm     88% 1.02 mm
01:44 7.2 °C 5.4 °C 1017.5 hPa Calm   8 km/h 88% 1.27 mm
01:49 7.2 °C 5.4 °C 1017.5 hPa Calm   8 km/h 88% 1.27 mm
01:54 7.3 °C 5.4 °C 1017.5 hPa Calm     88% 1.27 mm
01:59 7.3 °C 5.4 °C 1017.5 hPa Calm     88% 1.27 mm
02:04 7.3 °C 5.5 °C 1017.5 hPa Calm     88% 1.27 mm
02:09 7.3 °C 5.5 °C 1017.2 hPa Calm     88% 1.02 mm
02:14 7.3 °C 5.7 °C 1017.2 hPa Calm     89% 1.02 mm
02:19 7.4 °C 5.7 °C 1017.2 hPa Calm     89% 1.02 mm
02:24 7.4 °C 5.7 °C 1016.8 hPa Calm   3.2 km/h 89% 1.02 mm
02:29 7.4 °C 5.7 °C 1016.8 hPa Calm   3.2 km/h 89% 0.76 mm
02:34 7.5 °C 5.8 °C 1016.8 hPa Calm     89% 0.76 mm
02:39 7.5 °C 5.8 °C 1016.8 hPa Calm     89% 1.02 mm
02:44 7.6 °C 5.8 °C 1016.8 hPa Calm     89% 0.76 mm
02:49 7.6 °C 5.8 °C 1016.8 hPa Calm     89% 0.76 mm
02:54 7.6 °C 5.8 °C 1016.8 hPa Calm     89% 0.76 mm
02:59 7.6 °C 5.8 °C 1016.8 hPa Calm     89% 0.51 mm
03:04 7.6 °C 5.8 °C 1016.8 hPa Calm     89% 0.76 mm
03:09 7.6 °C 6 °C 1016.8 hPa Calm     90% 1.02 mm
03:14 7.6 °C 6.1 °C 1016.5 hPa Calm     90% 1.02 mm
03:19 7.7 °C 6.1 °C 1016.5 hPa Calm     90% 1.02 mm
03:24 7.7 °C 6.1 °C 1016.5 hPa Calm     90% 1.02 mm
03:29 7.7 °C 6.2 °C 1016.5 hPa Calm     90% 1.02 mm
03:34 7.7 °C 6.2 °C 1016.5 hPa Calm     90% 1.27 mm
03:39 7.8 °C 6.2 °C 1016.5 hPa Calm     90% 1.02 mm
03:44 7.8 °C 6.2 °C 1016.1 hPa Calm     90% 1.27 mm
03:49 7.8 °C 6.3 °C 1016.1 hPa Calm     90% 1.27 mm
03:54 7.8 °C 6.3 °C 1015.8 hPa Calm     90% 1.52 mm
03:59 7.9 °C 6.4 °C 1016.1 hPa Calm     90% 1.52 mm
04:04 8.1 °C 6.5 °C 1016.1 hPa Calm     90% 1.52 mm
04:09 8.2 °C 6.8 °C 1015.8 hPa Calm     91% 1.27 mm
04:14 8.3 °C 6.9 °C 1015.8 hPa Calm     91% 1.52 mm
04:19 8.7 °C 7.3 °C 1015.8 hPa SSW 8 km/h 11.3 km/h 91% 1.27 mm
04:24 9.2 °C 7.9 °C 1015.8 hPa SSW 3.2 km/h 11.3 km/h 92% 1.52 mm
04:29 9.7 °C 8.4 °C 1015.5 hPa SSW 4.8 km/h 12.9 km/h 92% 1.78 mm
04:34 10.1 °C 8.8 °C 1015.5 hPa South 4.8 km/h 12.9 km/h 92% 2.03 mm
04:39 10.4 °C 9.2 °C 1015.1 hPa SE 4.8 km/h 11.3 km/h 92% 2.03 mm
04:44 10.7 °C 9.4 °C 1015.1 hPa SSW 3.2 km/h 19.3 km/h 92% 1.78 mm
04:49 10.8 °C 9.6 °C 1015.1 hPa SSW 9.7 km/h 19.3 km/h 92% 2.03 mm
04:54 11 °C 9.7 °C 1014.8 hPa SE 8 km/h 19.3 km/h 92% 1.78 mm
04:59 11.1 °C 9.8 °C 1014.8 hPa South 8 km/h 19.3 km/h 92% 1.78 mm
05:04 11.2 °C 9.9 °C 1015.1 hPa South 8 km/h 19.3 km/h 92% 1.52 mm
05:09 11.3 °C 10 °C 1015.1 hPa South 8 km/h 22.5 km/h 92% 2.03 mm
05:14 11.3 °C 10.1 °C 1015.1 hPa SSW 9.7 km/h 22.5 km/h 92% 2.29 mm
05:19 11.4 °C 10.2 °C 1015.1 hPa South 6.4 km/h 14.5 km/h 92% 2.54 mm
05:24 11.6 °C 10.3 °C 1015.1 hPa SW 9.7 km/h 22.5 km/h 92% 2.29 mm
05:29 11.6 °C 10.3 °C 1015.1 hPa SSW 9.7 km/h 19.3 km/h 92% 2.03 mm
05:34 11.7 °C 10.4 °C 1015.1 hPa SSW 9.7 km/h 24.1 km/h 92% 1.52 mm
05:44 11.8 °C 10.6 °C 1015.5 hPa SSW 9.7 km/h 20.9 km/h 92% 1.78 mm
05:49 11.9 °C 10.4 °C 1015.5 hPa SSW 8 km/h 20.9 km/h 91% 2.29 mm
05:54 11.9 °C 10.5 °C 1015.5 hPa South 6.4 km/h 17.7 km/h 91% 2.79 mm
05:59 12 °C 10.6 °C 1015.8 hPa SW 4.8 km/h 24.1 km/h 91% 2.79 mm
06:04 12.1 °C 10.6 °C 1016.1 hPa SSW 9.7 km/h 24.1 km/h 91% 3.81 mm
06:09 12.1 °C 10.6 °C 1016.1 hPa SW 11.3 km/h 30.6 km/h 91% 4.32 mm
06:14 12.1 °C 10.7 °C 1016.1 hPa SSW 11.3 km/h 19.3 km/h 91% 4.32 mm
06:19 12.1 °C 10.7 °C 1016.1 hPa South 14.5 km/h 22.5 km/h 91% 4.83 mm
06:24 12.1 °C 10.6 °C 1016.1 hPa West 6.4 km/h 30.6 km/h 91% 5.59 mm
06:29 12 °C 10.6 °C 1015.8 hPa SW 9.7 km/h 24.1 km/h 91% 6.1 mm
06:34 12.1 °C 10.6 °C 1016.1 hPa SSE 9.7 km/h 19.3 km/h 91% 6.6 mm
06:39 12 °C 10.6 °C 1015.8 hPa SSW 8 km/h 19.3 km/h 91% 6.6 mm
06:44 12 °C 10.6 °C 1015.8 hPa SW 6.4 km/h 16.1 km/h 91% 6.6 mm
06:49 12 °C 10.6 °C 1016.1 hPa SW 6.4 km/h 17.7 km/h 91% 5.84 mm
06:54 12.1 °C 10.6 °C 1015.8 hPa SW 6.4 km/h 17.7 km/h 91% 5.59 mm
06:59 12.1 °C 10.6 °C 1015.8 hPa SW 8 km/h 22.5 km/h 91% 5.59 mm
07:04 12.1 °C 10.6 °C 1015.8 hPa SSW 8 km/h 22.5 km/h 91% 4.57 mm
07:09 12.1 °C 10.7 °C 1016.1 hPa SSW 8 km/h 22.5 km/h 91% 4.06 mm
07:14 12.2 °C 10.7 °C 1016.1 hPa SSW 8 km/h 19.3 km/h 91% 4.32 mm
07:19 12.2 °C 10.7 °C 1015.8 hPa South 8 km/h 20.9 km/h 91% 3.81 mm
07:24 12.2 °C 10.8 °C 1015.8 hPa SW 6.4 km/h 20.9 km/h 91% 3.05 mm
07:29 12.2 °C 10.8 °C 1016.1 hPa SW 8 km/h 20.9 km/h 91% 2.79 mm
07:34 12.2 °C 10.8 °C 1016.1 hPa SSW 11.3 km/h 24.1 km/h 91% 2.29 mm
07:39 12.2 °C 10.8 °C 1016.1 hPa South 4.8 km/h 17.7 km/h 91% 2.29 mm
07:44 12.3 °C 10.8 °C 1016.1 hPa SSW 9.7 km/h 20.9 km/h 91% 2.29 mm
07:49 12.3 °C 10.8 °C 1016.1 hPa SSW 9.7 km/h 24.1 km/h 91% 2.79 mm
07:54 12.3 °C 10.8 °C 1016.1 hPa SSW 11.3 km/h 24.1 km/h 91% 2.54 mm
07:59 12.3 °C 10.8 °C 1016.5 hPa SSW 11.3 km/h 24.1 km/h 91% 2.79 mm
08:04 12.3 °C 10.8 °C 1016.1 hPa South 20.9 km/h 22.5 km/h 91% 2.79 mm
08:09 12.3 °C 10.9 °C 1016.5 hPa SW 6.4 km/h 17.7 km/h 91% 2.29 mm
08:14 12.3 °C 10.8 °C 1016.5 hPa SSW 9.7 km/h 24.1 km/h 91% 1.52 mm
08:19 12.3 °C 10.9 °C 1016.5 hPa SSW 9.7 km/h 24.1 km/h 91% 1.27 mm
08:24 12.3 °C 10.9 °C 1016.5 hPa SSW 8 km/h 16.1 km/h 91% 1.27 mm
08:29 12.3 °C 10.9 °C 1016.5 hPa SSW 11.3 km/h 22.5 km/h 91% 1.02 mm
08:34 12.4 °C 10.9 °C 1016.8 hPa South 12.9 km/h 19.3 km/h 91% 1.02 mm
08:39 12.4 °C 11 °C 1016.5 hPa South 11.3 km/h 16.1 km/h 91% 1.02 mm
08:44 12.4 °C 11 °C 1016.5 hPa SSW 12.9 km/h 25.7 km/h 91% 0.76 mm
08:49 12.5 °C 11.1 °C 1016.5 hPa SSW 8 km/h 25.7 km/h 91% 0.25 mm
08:54 12.6 °C 11.1 °C 1016.5 hPa SSW 8 km/h 17.7 km/h 91% 0.25 mm
08:59 12.6 °C 11.2 °C 1016.8 hPa SSW 6.4 km/h 17.7 km/h 91% 0 mm
09:04 12.7 °C 11.2 °C 1016.5 hPa SSW 8 km/h 22.5 km/h 91% 0 mm
09:09 12.7 °C 11.2 °C 1016.8 hPa SSW 9.7 km/h 22.5 km/h 91% 0.25 mm
09:14 12.8 °C 11.3 °C 1016.5 hPa SSW 8 km/h 25.7 km/h 91% 0.25 mm
09:19 12.8 °C 11.4 °C 1016.5 hPa SSW 11.3 km/h 17.7 km/h 91% 0.25 mm
09:24 12.9 °C 11.4 °C 1016.5 hPa SSW 3.2 km/h 22.5 km/h 91% 0.25 mm
09:29 12.9 °C 11.3 °C 1016.5 hPa SW 4.8 km/h 19.3 km/h 90% 0.25 mm
09:34 13 °C 11.4 °C 1016.5 hPa SSW 11.3 km/h 24.1 km/h 90% 0.25 mm
09:39 13.1 °C 11.4 °C 1016.5 hPa SW 1.6 km/h 19.3 km/h 90% 0.25 mm
09:44 13.2 °C 11.6 °C 1016.5 hPa South 17.7 km/h 22.5 km/h 90% 0.25 mm
09:49 13.3 °C 11.7 °C 1016.8 hPa SW 16.1 km/h 20.9 km/h 90% 0.25 mm
09:54 13.3 °C 11.7 °C 1016.8 hPa WSW 16.1 km/h 20.9 km/h 90% 0.25 mm
09:59 13.4 °C 11.7 °C 1016.8 hPa SSW 8 km/h 20.9 km/h 89% 0.25 mm
10:04 13.4 °C 11.7 °C 1016.8 hPa SSW 8 km/h 17.7 km/h 89% 0.25 mm
10:09 13.6 °C 11.8 °C 1016.8 hPa SSW 8 km/h 20.9 km/h 89% 0 mm
10:14 13.7 °C 11.9 °C 1016.8 hPa SSW 8 km/h 20.9 km/h 89% 0 mm
10:19 13.9 °C 11.9 °C 1016.8 hPa SSW 8 km/h 19.3 km/h 88% 0 mm
10:24 14.1 °C 12.1 °C 1016.8 hPa SSW 16.1 km/h 19.3 km/h 88% 0 mm
10:29 14.3 °C 12.2 °C 1016.8 hPa SSW 8 km/h 19.3 km/h 87% 0 mm
10:34 14.9 °C 12.4 °C 1016.8 hPa SSW 9.7 km/h 22.5 km/h 85% 0 mm
10:39 15.2 °C 12.2 °C 1016.8 hPa SSW 12.9 km/h 22.5 km/h 82% 0 mm
10:44 15.3 °C 12.1 °C 1016.8 hPa SSW 9.7 km/h 19.3 km/h 81% 0 mm
10:49 15.2 °C 12 °C 1016.8 hPa South 11.3 km/h 22.5 km/h 81% 0 mm
10:54 15.3 °C 12.1 °C 1016.8 hPa SSW 11.3 km/h 22.5 km/h 81% 0 mm
10:59 15.3 °C 12.1 °C 1016.8 hPa SSW 8 km/h 25.7 km/h 81% 0 mm
11:04 15.4 °C 12.2 °C 1016.8 hPa SSW 11.3 km/h 25.7 km/h 81% 0 mm
11:09 15.6 °C 12.2 °C 1016.8 hPa SSW 9.7 km/h 24.1 km/h 80% 0 mm
11:14 15.7 °C 12.1 °C 1016.8 hPa SSW 11.3 km/h 25.7 km/h 79% 0 mm
11:19 15.8 °C 12.3 °C 1016.8 hPa SSW 11.3 km/h 25.7 km/h 80% 0 mm
11:24 15.8 °C 12.2 °C 1016.8 hPa SSW 8 km/h 22.5 km/h 79% 0 mm
11:29 15.7 °C 12.1 °C 1017.2 hPa SSW 8 km/h 17.7 km/h 79% 0 mm
11:34 15.7 °C 12.1 °C 1017.2 hPa SSW 9.7 km/h 22.5 km/h 79% 0 mm
11:39 15.7 °C 12.1 °C 1017.2 hPa SSW 12.9 km/h 22.5 km/h 79% 0 mm
11:44 15.8 °C 12 °C 1017.2 hPa South 4.8 km/h 16.1 km/h 78% 0 mm
11:49 15.8 °C 12 °C 1017.2 hPa South 3.2 km/h 19.3 km/h 78% 0 mm
11:54 15.9 °C 12.1 °C 1017.2 hPa South 6.4 km/h 27.4 km/h 78% 0 mm
11:59 15.9 °C 12.1 °C 1017.2 hPa SW 9.7 km/h 22.5 km/h 78% 0 mm
12:04 15.9 °C 12.1 °C 1017.5 hPa SSE 11.3 km/h 20.9 km/h 78% 0 mm
12:09 15.9 °C 12.1 °C 1017.2 hPa SSW 8 km/h 20.9 km/h 78% 0 mm
12:14 16.1 °C 12.1 °C 1017.2 hPa SSW 9.7 km/h 20.9 km/h 77% 0 mm
12:19 16.3 °C 12.2 °C 1017.2 hPa SSW 11.3 km/h 27.4 km/h 77% 0 mm
12:24 16.4 °C 12.2 °C 1017.2 hPa SSW 11.3 km/h 27.4 km/h 76% 0 mm
12:29 16.4 °C 12.2 °C 1017.2 hPa SSW 9.7 km/h 20.9 km/h 76% 0 mm
12:34 16.4 °C 12.2 °C 1016.8 hPa SSW 8 km/h 19.3 km/h 76% 0 mm
12:39 16.3 °C 12.1 °C 1016.8 hPa SW 8 km/h 16.1 km/h 76% 0 mm
12:44 16.3 °C 12.2 °C 1016.8 hPa SSW 4.8 km/h 20.9 km/h 77% 0 mm
12:49 16.4 °C 12.4 °C 1016.8 hPa SSE 6.4 km/h 19.3 km/h 77% 0 mm
12:54 16.6 °C 12.3 °C 1016.5 hPa SW 4.8 km/h 17.7 km/h 76% 0 mm
12:59 16.7 °C 12.4 °C 1016.5 hPa SW 8 km/h 14.5 km/h 76% 0 mm
13:04 16.7 °C 12.4 °C 1016.5 hPa South 8 km/h 24.1 km/h 76% 0 mm
13:09 16.8 °C 12.4 °C 1016.5 hPa South 6.4 km/h 17.7 km/h 75% 0 mm
13:14 16.9 °C 12.4 °C 1016.5 hPa SSW 8 km/h 17.7 km/h 75% 0 mm
13:19 17 °C 12.6 °C 1016.5 hPa SSW 6.4 km/h 16.1 km/h 75% 0 mm
13:24 17.1 °C 12.4 °C 1016.1 hPa SSW 8 km/h 19.3 km/h 74% 0 mm
13:29 17.2 °C 12.5 °C 1016.1 hPa SSW 8 km/h 19.3 km/h 74% 0 mm
13:34 17.6 °C 12.9 °C 1016.1 hPa SSW 6.4 km/h 14.5 km/h 74% 0 mm
13:39 17.7 °C 12.8 °C 1016.1 hPa SSW 6.4 km/h 17.7 km/h 73% 0 mm
13:44 17.8 °C 12.9 °C 1016.1 hPa SW 1.6 km/h 19.3 km/h 73% 0 mm
13:49 17.8 °C 12.7 °C 1016.1 hPa SE 6.4 km/h 24.1 km/h 72% 0 mm
13:59 17.8 °C 12.7 °C 1015.8 hPa South 6.4 km/h 20.9 km/h 72% 0 mm
14:04 17.9 °C 12.8 °C 1015.8 hPa South 12.9 km/h 22.5 km/h 72% 0 mm
14:09 17.8 °C 12.7 °C 1015.8 hPa West 4.8 km/h 17.7 km/h 72% 0 mm
14:14 17.7 °C 12.6 °C 1015.8 hPa WSW 6.4 km/h 19.3 km/h 72% 0 mm
14:19 17.6 °C 12.5 °C 1016.1 hPa SW 12.9 km/h 30.6 km/h 72% 0 mm
14:24 17.6 °C 12.4 °C 1016.1 hPa SSW 9.7 km/h 30.6 km/h 72% 0 mm
14:29 17.4 °C 12.6 °C 1016.1 hPa SW 9.7 km/h 19.3 km/h 73% 0 mm
14:34 17.3 °C 12.4 °C 1016.1 hPa SW 8 km/h 17.7 km/h 73% 0 mm
14:39 17.3 °C 12.6 °C 1016.1 hPa SW 6.4 km/h 17.7 km/h 74% 0 mm
14:44 17.2 °C 12.6 °C 1016.1 hPa SW 6.4 km/h 16.1 km/h 74% 0 mm
14:49 17.2 °C 12.6 °C 1016.1 hPa WSW 8 km/h 17.7 km/h 74% 0 mm
14:54 17.2 °C 12.6 °C 1016.1 hPa SW 6.4 km/h 17.7 km/h 74% 0 mm
14:59 17.2 °C 12.5 °C 1016.1 hPa SSW 11.3 km/h 16.1 km/h 74% 0 mm
15:04 17.2 °C 12.5 °C 1016.1 hPa South 11.3 km/h 16.1 km/h 74% 0 mm
15:09 17.2 °C 12.5 °C 1016.1 hPa South 9.7 km/h 17.7 km/h 74% 0 mm
15:14 17.2 °C 12.7 °C 1016.1 hPa WSW 11.3 km/h 16.1 km/h 75% 0 mm
15:19 17.2 °C 12.5 °C 1016.1 hPa SW 12.9 km/h 20.9 km/h 74% 0 mm
15:24 17.2 °C 12.5 °C 1016.1 hPa SSW 4.8 km/h 12.9 km/h 74% 0 mm
15:29 17.2 °C 12.6 °C 1016.1 hPa SW 6.4 km/h 16.1 km/h 74% 0 mm
15:34 17.3 °C 12.7 °C 1016.1 hPa SW 4.8 km/h 16.1 km/h 74% 0 mm
15:39 17.4 °C 12.6 °C 1016.1 hPa SSW 6.4 km/h 14.5 km/h 73% 0 mm
15:44 17.5 °C 12.6 °C 1016.1 hPa South 6.4 km/h 14.5 km/h 73% 0 mm
15:49 17.6 °C 12.7 °C 1016.1 hPa SSW 4.8 km/h 12.9 km/h 73% 0 mm
15:54 17.6 °C 12.7 °C 1016.1 hPa SSW 8 km/h 14.5 km/h 73% 0 mm
15:59 17.6 °C 12.7 °C 1016.1 hPa SSW 8 km/h 16.1 km/h 73% 0 mm
16:04 17.6 °C 12.7 °C 1016.1 hPa SSW 8 km/h 17.7 km/h 73% 0 mm
16:09 17.6 °C 12.4 °C 1016.1 hPa SSW 4.8 km/h 20.9 km/h 72% 0 mm
16:14 17.6 °C 12.7 °C 1016.1 hPa SSW 8 km/h 17.7 km/h 73% 0 mm
16:19 17.6 °C 12.7 °C 1016.1 hPa SW 9.7 km/h 14.5 km/h 73% 0 mm
16:24 17.6 °C 12.4 °C 1016.1 hPa SSW 8 km/h 20.9 km/h 72% 0 mm
16:29 17.5 °C 12.6 °C 1016.1 hPa SSW 8 km/h 19.3 km/h 73% 0 mm
16:34 17.5 °C 12.4 °C 1016.1 hPa SSW 8 km/h 19.3 km/h 72% 0 mm
16:39 17.5 °C 12.6 °C 1016.1 hPa SSW 8 km/h 19.3 km/h 73% 0 mm
16:44 17.4 °C 12.6 °C 1016.1 hPa SSW 8 km/h 17.7 km/h 73% 0 mm
16:49 17.4 °C 12.5 °C 1016.1 hPa SSW 8 km/h 17.7 km/h 73% 0 mm
16:54 17.3 °C 12.4 °C 1016.1 hPa SSW 9.7 km/h 25.7 km/h 73% 0 mm
16:59 17.3 °C 12.4 °C 1016.1 hPa SSW 9.7 km/h 25.7 km/h 73% 0 mm
17:04 17.2 °C 12.3 °C 1016.1 hPa SSW 4.8 km/h 16.1 km/h 73% 0 mm
17:09 17.2 °C 12.3 °C 1016.1 hPa SW 4.8 km/h 16.1 km/h 73% 0 mm
17:14 17.2 °C 12.3 °C 1016.1 hPa South 8 km/h 19.3 km/h 73% 0 mm
17:19 17.1 °C 12.2 °C 1016.1 hPa SSE 11.3 km/h 19.3 km/h 73% 0 mm
17:24 17.1 °C 12.4 °C 1016.1 hPa SSW 3.2 km/h 14.5 km/h 74% 0 mm
17:29 17 °C 12.3 °C 1016.1 hPa SSW 9.7 km/h 16.1 km/h 74% 0 mm
17:34 16.9 °C 12.3 °C 1016.1 hPa SSW 4.8 km/h 14.5 km/h 74% 0 mm
17:39 16.9 °C 12.2 °C 1016.1 hPa SSW 6.4 km/h 12.9 km/h 74% 0 mm
17:44 16.8 °C 12.2 °C 1016.1 hPa SSW 6.4 km/h 24.1 km/h 74% 0 mm
17:49 16.7 °C 12.1 °C 1016.1 hPa SSW 6.4 km/h 24.1 km/h 74% 0 mm
17:54 16.6 °C 12.2 °C 1016.1 hPa SSW 4.8 km/h 12.9 km/h 75% 0 mm
17:59 16.5 °C 12.1 °C 1015.8 hPa SSW 4.8 km/h 12.9 km/h 75% 0 mm
18:04 16.4 °C 12 °C 1015.8 hPa SSW 4.8 km/h 11.3 km/h 75% 0 mm
18:09 16.4 °C 12 °C 1015.8 hPa SSW 6.4 km/h 19.3 km/h 75% 0 mm
18:14 16.4 °C 12 °C 1015.8 hPa SSE 19.3 km/h 22.5 km/h 75% 0 mm
18:19 16.4 °C 11.9 °C 1015.8 hPa SSE 6.4 km/h 19.3 km/h 75% 0 mm
18:24 16.4 °C 11.9 °C 1015.8 hPa SSW 6.4 km/h 19.3 km/h 75% 0 mm
18:29 16.3 °C 11.9 °C 1015.8 hPa SSW 3.2 km/h 20.9 km/h 75% 0 mm
18:34 16.3 °C 11.8 °C 1015.8 hPa SW 6.4 km/h 19.3 km/h 75% 0 mm
18:39 16.3 °C 11.8 °C 1015.8 hPa South 8 km/h 12.9 km/h 75% 0 mm
18:44 16.3 °C 11.9 °C 1015.8 hPa SE 12.9 km/h 19.3 km/h 75% 0 mm
18:49 16.3 °C 11.9 °C 1015.8 hPa SSW 6.4 km/h 19.3 km/h 75% 0 mm
18:54 16.3 °C 11.9 °C 1015.8 hPa SSW 6.4 km/h 16.1 km/h 75% 0 mm
18:59 16.4 °C 11.9 °C 1015.8 hPa SSW 6.4 km/h 16.1 km/h 75% 0 mm
19:04 16.4 °C 11.9 °C 1015.8 hPa SSW 3.2 km/h 11.3 km/h 75% 0 mm
19:09 16.3 °C 11.9 °C 1015.8 hPa SSW 3.2 km/h 17.7 km/h 75% 0 mm
19:14 16.4 °C 12 °C 1015.8 hPa SSW 4.8 km/h 12.9 km/h 75% 0 mm
19:19 16.6 °C 12.1 °C 1015.8 hPa SSW 9.7 km/h 24.1 km/h 75% 0 mm
19:24 16.6 °C 12.1 °C 1015.8 hPa SSW 6.4 km/h 24.1 km/h 75% 0 mm
19:29 16.7 °C 12.2 °C 1015.8 hPa South 9.7 km/h 17.7 km/h 75% 0 mm
19:34 16.7 °C 12.2 °C 1015.8 hPa SSW 8 km/h 16.1 km/h 75% 0 mm
19:39 16.7 °C 12.3 °C 1015.8 hPa SSW 6.4 km/h 14.5 km/h 75% 0 mm
19:44 16.7 °C 12.2 °C 1015.8 hPa SSW 6.4 km/h 14.5 km/h 75% 0 mm
19:49 16.7 °C 12.2 °C 1015.8 hPa SSW 6.4 km/h 19.3 km/h 75% 0 mm
19:54 16.7 °C 12.2 °C 1015.8 hPa SSW 6.4 km/h 19.3 km/h 75% 0 mm
19:59 16.7 °C 12.2 °C 1015.5 hPa SSW 6.4 km/h 17.7 km/h 75% 0 mm
20:04 16.7 °C 12.3 °C 1015.5 hPa SSW 8 km/h 19.3 km/h 75% 0 mm
20:09 16.8 °C 12.1 °C 1015.5 hPa SSW 8 km/h 19.3 km/h 74% 0 mm
20:14 16.9 °C 12.2 °C 1015.5 hPa SSW 9.7 km/h 22.5 km/h 74% 0 mm
20:19 16.8 °C 12.2 °C 1015.5 hPa SSW 9.7 km/h 22.5 km/h 74% 0 mm
20:24 16.9 °C 12.2 °C 1015.5 hPa SW 3.2 km/h 16.1 km/h 74% 0 mm
20:29 16.8 °C 12.2 °C 1015.5 hPa SSW 8 km/h 17.7 km/h 74% 0 mm
20:34 16.9 °C 12.2 °C 1015.5 hPa WSW 3.2 km/h 16.1 km/h 74% 0 mm
20:39 16.9 °C 12.2 °C 1015.5 hPa SW 4.8 km/h 14.5 km/h 74% 0 mm
20:44 16.9 °C 12.3 °C 1015.5 hPa SW 6.4 km/h 25.7 km/h 74% 0 mm
20:49 16.9 °C 12.3 °C 1015.5 hPa WSW 12.9 km/h 14.5 km/h 74% 0 mm
20:54 16.9 °C 12.3 °C 1015.5 hPa SW 12.9 km/h 19.3 km/h 74% 0 mm
20:59 16.9 °C 12.3 °C 1015.5 hPa SW 4.8 km/h 12.9 km/h 74% 0 mm
21:04 17 °C 12.3 °C 1015.1 hPa SSW 8 km/h 17.7 km/h 74% 0 mm
21:09 16.9 °C 12.3 °C 1015.1 hPa SSW 8 km/h 19.3 km/h 74% 0 mm
21:14 16.9 °C 12.3 °C 1015.1 hPa SSW 6.4 km/h 19.3 km/h 74% 0 mm
21:19 17 °C 12.3 °C 1015.1 hPa SSW 8 km/h 17.7 km/h 74% 0 mm
21:24 17.1 °C 12.4 °C 1015.1 hPa SSW 8 km/h 20.9 km/h 74% 0 mm
21:29 17.1 °C 12.4 °C 1015.1 hPa SSW 8 km/h 20.9 km/h 74% 0 mm
21:34 17.2 °C 12.5 °C 1015.1 hPa SSW 6.4 km/h 16.1 km/h 74% 0 mm
21:39 17.2 °C 12.5 °C 1015.1 hPa WSW 9.7 km/h 20.9 km/h 74% 0 mm
21:44 17.2 °C 12.5 °C 1015.1 hPa South 8 km/h 17.7 km/h 74% 0 mm
21:49 17.2 °C 12.3 °C 1015.1 hPa SW 6.4 km/h 14.5 km/h 73% 0 mm
21:54 17.3 °C 12.4 °C 1015.1 hPa SW 12.9 km/h 19.3 km/h 73% 0 mm
21:59 17.3 °C 12.4 °C 1015.1 hPa SSW 11.3 km/h 12.9 km/h 73% 0 mm
22:04 17.4 °C 12.5 °C 1015.1 hPa SSW 11.3 km/h 16.1 km/h 73% 0 mm
22:09 17.4 °C 12.6 °C 1015.1 hPa SSW 8 km/h 16.1 km/h 73% 0 mm
22:14 17.5 °C 12.4 °C 1014.8 hPa SSW 8 km/h 14.5 km/h 72% 0 mm
22:19 17.5 °C 12.4 °C 1014.8 hPa SSW 8 km/h 14.5 km/h 72% 0 mm
22:24 17.5 °C 12.6 °C 1014.8 hPa SSW 8 km/h 16.1 km/h 73% 0 mm
22:29 17.6 °C 12.4 °C 1014.8 hPa SSW 8 km/h 16.1 km/h 72% 0 mm
22:34 17.6 °C 12.5 °C 1014.4 hPa SSW 8 km/h 19.3 km/h 72% 0 mm
22:39 17.6 °C 12.5 °C 1014.4 hPa SSW 9.7 km/h 25.7 km/h 72% 0 mm
22:44 17.7 °C 12.6 °C 1014.4 hPa South 8 km/h 17.7 km/h 72% 0 mm
22:49 17.7 °C 12.6 °C 1014.4 hPa SW 11.3 km/h 16.1 km/h 72% 0 mm
22:54 17.7 °C 12.6 °C 1014.4 hPa SSW 16.1 km/h 24.1 km/h 72% 0 mm
22:59 17.8 °C 12.7 °C 1014.4 hPa SSW 11.3 km/h 19.3 km/h 72% 0 mm
23:04 17.8 °C 12.7 °C 1014.4 hPa South 11.3 km/h 20.9 km/h 72% 0 mm
23:09 17.8 °C 12.5 °C 1014.1 hPa SSW 8 km/h 19.3 km/h 71% 0 mm
23:19 17.9 °C 12.6 °C 1014.1 hPa SSW 9.7 km/h 22.5 km/h 71% 0 mm
23:24 17.9 °C 12.6 °C 1014.1 hPa SW 8 km/h 22.5 km/h 71% 0 mm
23:29 17.9 °C 12.6 °C 1014.1 hPa SW 8 km/h 20.9 km/h 71% 0 mm
23:34 17.8 °C 12.5 °C 1014.1 hPa SSW 8 km/h 20.9 km/h 71% 0 mm
23:39 17.9 °C 12.6 °C 1014.1 hPa SW 9.7 km/h 22.5 km/h 71% 0 mm
23:44 17.9 °C 12.6 °C 1013.8 hPa SSW 1.6 km/h 17.7 km/h 71% 0 mm
23:49 17.9 °C 12.6 °C 1013.8 hPa SSW 4.8 km/h 16.1 km/h 71% 0 mm
23:54 17.8 °C 12.7 °C 1013.4 hPa SSW 8 km/h 16.1 km/h 72% 0 mm
23:59 17.7 °C 12.6 °C 1013.4 hPa SW 8 km/h 16.1 km/h 72% 0 mm
Buffalo, New York, USA
Compliments of Weather Underground - 2.5 mb